Probability
0 0 0 0 0 0 0 0 0 0 0 0 0 0 0 0 0 0 0 0 0 0 0 0 0 0 0 0 0 0 0 0 0 0 0 0 0 0 0 0 0 0 0 0
0 0 0 0 0 0 0 0 0 0 0 0 0 0 0 0 0 0 0 0 0 0 0 0 0 0 0 0 0 0 0 0 0 0 0 0 0 0 0 0 0 0 0 0
0 0 0 0 0 0 0 0 0 0 0 0 0 0 0 0 0 0 0 0 0 0 0 0 0 0 0 0 0 0 0 0 0 0 0 0 0 0 0 0 0 0 0 0
0 0 0 0 0 0 0 0 0 0 0 0 0 0 0 0 0 0 0 0 0 0 0 0 0 0 0 0 0 0 0 0 0 0 0 0 0 0 0 0 0 0 0 0
0 0 0 0 0 0 0 0 0 0 0 0 0 0 0 0 0 0 0 0 0 0 0 0 0 0 0 0 0 0 0 0 0 0 0 0 0 0 0 0 0 0 0 0
0 0 0 0 0 0 0 0 0 0 0 0 0 0 0 0 0 0 0 0 0 0 0 0 0 0 0 0 0 0 0 0 0 0 0 0 0 0 0 0 0 0 0 0
0 0 0 0 0 0 0 0 0 0 0 0 0 0 0 0 0 0 0 0 0 0 0 0 0 0 0 0 0 0 0 0 0 0 0 0 0 0 0 0 0 0 0 0
0 0 0 0 0 0 0 0 0 0 0 0 0 0 0 0 0 0 0 0 0 0 0 0 0 0 0 0 0 0 0 0 0 0 0 0 0 0 0 0 0 0 0 0
0 0 0 0 0 0 0 0 0 0 0 0 0 0 0 0 0 0 0 0 0 0 0 0 0 0 0 0 0 0 0 0 0 0 0 0 0 0 0 0 0 0 0 0
0 0 0 0 0 0 0 0 0 0 0 0 0 0 0 0 0 0 0 0 0 0 0 0 0 0 0 0 0 0 0 0 0 0 0 0 0 0 0 0 0 0 0 0
0 0 0 0 0 0 0 0 0 0 0 0 0 0 0 0 0 0 0 0 0 0 0 0 0 0 0 0 0 0 0 0 0 0 0 0 0 0 0 0 0 0 0 0
0 0 0 0 0 0 0 0 0 0 0 0 0 0 0 0 0 0 0 0 0 0 0 0 0 0 0 0 0 0 0 0 0 0 0 0 0 0 0 0 0 0 0 0
0 0 0 0 0 0 0 0 0 0 0 0 0 0 0 0 0 0 0 0 0 0 0 0 0 0 0 0 0 0 0 0 0 0 0 0 0 0 0 0 0 0 0 0
0 0 0 0 0 0 0 0 0 0 0 0 0 0 0 0 0 0 0 0 0 0 0 0 0 0 0 0 0 0 0 0 0 0 0 0 0 0 0 0 0 0 0 0
0 0 0 0 0 0 0 0 0 0 0 0 0 0 0 0 0 0 0 0 0 0 0 0 0 0 0 0 0 0 0 0 0 0 0 0 0 0 0 0 0 0 0 0
0 0 0 0 0 0 0 0 0 0 0 0 0 0 0 0 0 0 0 0 0 0 0 0 0 0 0 0 0 0 0 0 0 0 0 0 0 0 0 0 0 0 0 0
0 0 0 0 0 0 0 0 0 0 0 0 0 0 0 0 0 0 0 0 0 0 0 0 0 0 0 0 0 0 0 0 0 0 0 0 0 0 0 0 0 0 0 0
0 0 0 0 0 0 0 0 0 0 0 0 0 0 0 0 0 0 0 0 0 0 0 0 0 0 0 0 0 0 0 0 0 0 0 0 0 0 0 0 0 0 0 0
0 0 0 0 0 0 0 0 0 0 0 0 0 0 0 0 0 0 0 0 0 0 0 0 0 0 0 0 0 0 0 0 0 0 0 0 0 0 0 0 0 0 0 0
0 0 0 0 0 0 0 0 0 0 0 0 0 0 0 0 0 0 0 0 0 0 0 0 0 0 0 0 0 0 0 0 0 0 0 0 0 0 0 0 0 0 0 0
0 0 0 0 0 0 0 0 0 0 0 0 0 0 0 0 0 0 0 0 0 0 0 0 0 0 0 0 0 0 0 0 0 0 0 0 0 0 0 0 0 0 0 0
0 0 0 0 0 0 0 0 0 0 0 0 0 0 0 0 0 0 0 0 0 0 0 0 0 0 0 0 0 0 0 0 0 0 0 0 0 0 0 0 0 0 0 0
0 0 0 0 0 0 0 0 0 0 0 0 0 0 0 0 0 0 0 0 0 0 0 0 0 0 0 0 0 0 0 0 0 0 0 0 0 0 0 0 0 0 0 0
0 0 0 0 0 0 0 0 0 0 0 0 0 0 0 0 0 0 0 0 0 0 0 0 0 0 0 0 0 0 0 0 0 0 0 0 0 0 0 0 0 0 0 0
0 0 0 0 0 0 0 0 0 0 0 0 0 0 0 0 0 0 0 0 0 0 0 0 0 0 0 0 0 0 0 0 0 0 0 0 0 0 0 0 0 0 0 0
0 0 0 0 0 0 0 0 0 0 0 0 0 0 0 0 0 0 0 0 0 0 0 0 0 0 0 0 0 0 0 0 0 0 0 0 0 0 0 0 0 0 0 0
0 0 0 0 0 0 0 0 0 0 0 0 0 0 0 0 0 0 0 0 0 0 0 0 0 0 0 0 0 0 0 0 0 0 0 0 0 0 0 0 0 0 0 0
Wind_Speed
8 7 6 8 8 7 9 9 9 10 11 13 11 9 9 9 9 9 9 9 8 8 8 8 7 7 7 7 7 7 6 6 6 6 5 5 5 4 5 5 5 5 5 5
6 5 6 10 11 10 11 10 12 13 14 10 9 8 8 9 9 10 10 9 8 8 8 8 8 8 8 8 8 7 6 6 6 5 5 5 5 4 4 5 5 5 5 5
5 2 6 10 8 10 8 8 8 11 9 6 7 8 8 9 8 9 9 9 8 8 8 8 8 8 8 8 8 6 6 6 6 5 5 5 5 4 4 5 5 5 5 5
4 3 8 2 2 4 7 8 9 9 9 8 8 9 8 8 8 8 9 9 8 8 8 8 8 8 8 7 7 6 6 6 6 6 6 5 5 5 5 4 4 4 5 5
3 5 9 4 3 4 5 8 7 9 10 9 8 8 6 4 5 7 8 8 7 7 8 8 8 8 7 7 7 6 7 7 7 6 6 6 5 5 5 4 4 4 5 5
4 5 7 2 2 2 3 6 3 5 7 6 5 6 4 3 5 7 7 7 7 7 7 7 7 7 7 7 7 7 7 7 7 7 6 6 6 6 5 4 5 4 5 5
7 8 9 1 3 5 4 3 0 3 5 4 5 6 6 6 6 7 7 7 7 7 6 7 7 6 6 7 7 8 8 7 7 7 6 6 6 5 5 4 4 4 4 4
6 8 9 5 6 6 4 2 2 4 4 5 6 7 7 7 7 7 7 8 7 6 7 7 7 6 7 7 8 8 7 7 7 7 6 5 5 5 4 3 4 3 3 3
9 7 1 6 6 4 2 4 4 5 5 5 6 7 7 7 6 6 7 7 6 6 7 7 7 6 7 8 8 7 7 7 7 7 6 6 5 5 4 3 2 3 3 3
7 9 7 7 7 6 5 6 6 6 5 5 6 7 7 6 6 6 6 6 6 6 6 7 7 7 7 7 7 6 6 7 6 6 6 5 4 4 3 2 2 2 2 2
8 8 6 6 7 7 6 5 5 5 5 5 5 6 6 6 6 6 6 6 6 6 6 8 8 8 7 7 6 6 6 6 6 6 5 5 4 4 4 3 3 3 3 3
7 5 5 3 2 3 4 5 5 5 5 5 5 6 6 6 5 5 6 6 6 7 7 8 8 8 8 7 6 6 6 5 5 5 4 4 4 4 4 4 5 5 5 5
4 2 3 3 3 3 4 5 5 5 5 5 5 5 5 5 5 5 6 6 7 7 7 7 7 8 8 7 6 5 6 6 5 4 4 4 4 4 4 4 5 5 5 6
4 2 3 3 3 3 4 4 4 4 4 4 4 4 4 5 5 6 6 6 7 7 7 7 7 7 7 6 5 5 6 6 5 4 4 4 4 3 3 4 4 3 4 5
4 4 4 3 3 3 3 3 4 4 4 4 4 4 4 5 6 6 6 6 6 6 6 6 7 7 7 6 5 5 5 4 4 4 4 4 4 3 3 3 3 3 3 4
3 3 3 4 4 4 3 3 4 5 5 5 4 5 5 5 6 6 6 6 5 6 7 6 7 7 7 6 5 4 4 6 6 4 4 3 3 3 3 3 3 3 3 3
2 3 3 4 5 5 5 5 5 5 5 5 5 5 5 5 5 6 6 6 6 6 6 6 7 6 6 5 5 4 4 5 6 4 3 3 3 3 3 3 3 3 3 4
5 5 5 5 5 5 6 5 5 5 5 5 5 4 4 5 6 6 6 6 6 6 6 6 6 6 5 5 5 4 4 4 4 3 3 3 3 3 3 3 3 3 3 3
4 4 5 5 5 5 5 5 5 5 5 4 4 5 5 5 6 6 6 5 6 7 6 6 8 6 5 5 5 4 4 4 4 3 3 3 3 3 3 3 3 3 3 3
3 3 4 4 4 4 5 5 4 4 4 4 4 5 5 5 5 5 5 5 5 5 6 7 6 5 5 5 5 4 4 4 4 3 3 3 3 3 3 3 3 3 3 3
4 4 4 4 4 4 4 4 4 4 4 4 4 5 5 5 5 4 5 5 5 6 6 7 5 5 4 5 5 4 3 3 3 3 3 3 3 3 3 3 3 3 3 3
3 3 3 3 3 4 3 3 3 4 4 4 4 4 5 5 5 5 5 5 5 7 5 4 4 6 6 6 4 3 3 4 4 3 3 3 3 3 3 3 3 3 3 3
3 3 3 3 3 3 3 3 3 3 4 4 4 4 5 5 4 4 5 4 4 7 6 4 6 8 8 5 3 3 4 4 4 4 4 4 4 4 4 4 3 3 3 3
2 2 2 2 2 2 3 3 3 3 4 4 4 4 4 4 4 4 4 6 8 8 5 6 9 9 7 4 3 3 3 4 4 4 4 4 3 3 3 3 3 3 3 3
2 2 2 2 2 2 3 3 3 3 3 3 4 4 3 3 4 4 4 5 7 7 5 6 8 8 5 4 4 4 4 4 4 4 4 4 4 3 3 3 4 4 3 3
2 2 2 2 2 2 2 2 3 3 3 3 4 3 3 3 4 4 4 5 6 6 5 4 5 5 4 4 4 4 4 4 5 4 4 4 4 4 4 4 5 4 3 3
1 1 2 2 2 2 2 2 3 3 3 3 4 4 4 3 3 4 4 4 4 4 4 4 4 4 4 4 4 4 4 4 4 4 4 4 4 4 4 4 4 4 3 3
Wind_Direction
263 274 268 267 261 238 229 241 253 269 275 288 306 307 310 314 316 318 323 325 323 323 323 323 324 325 323 321 321 315 304 298 297 296 294 292 287 281 277 271 266 261 254 253
262 258 264 273 265 248 242 246 251 268 276 285 300 299 301 307 312 314 317 320 322 323 325 325 325 323 323 321 319 313 304 299 299 297 296 295 291 282 277 273 268 263 258 252
271 309 285 267 249 223 226 227 234 251 270 297 297 298 301 307 308 307 311 317 322 323 321 320 321 321 321 319 317 313 309 307 306 303 298 296 293 284 280 276 272 266 264 260
284 293 253 272 99 208 231 244 238 258 276 285 292 299 296 297 297 303 310 314 317 317 317 318 319 320 318 318 319 318 314 310 309 307 301 300 298 290 287 281 275 272 269 263
250 267 275 271 197 195 226 263 238 250 269 286 303 295 282 284 288 300 307 310 314 315 313 314 318 321 321 321 322 322 321 320 315 308 303 302 300 294 292 287 280 274 268 264
222 252 262 300 122 160 216 266 218 235 263 287 301 290 314 337 314 311 312 313 317 319 317 316 320 322 322 323 324 323 320 317 316 311 303 299 295 294 289 282 280 277 269 264
229 245 266 280 139 162 223 298 330 244 261 266 262 282 313 319 315 313 314 317 321 322 321 319 321 323 320 321 321 319 317 316 315 312 306 300 294 289 281 279 280 277 274 271
204 226 252 149 158 206 261 337 274 266 270 271 279 293 301 305 310 313 317 321 324 324 322 322 325 325 320 319 319 319 319 318 318 315 311 309 302 294 285 277 276 278 279 283
206 226 296 172 209 245 285 275 279 281 288 283 283 290 298 302 305 308 313 315 318 319 318 321 324 322 314 314 317 318 319 318 319 320 317 312 309 302 295 285 275 275 272 278
247 257 254 239 249 258 255 265 279 283 284 278 280 287 292 295 299 304 307 309 313 316 316 318 321 320 310 310 314 316 317 316 318 320 318 317 312 305 297 288 279 280 282 279
250 269 280 254 239 251 262 270 278 282 280 275 278 283 287 291 294 298 302 305 308 308 309 312 317 317 316 316 317 316 314 315 317 317 318 318 315 314 309 302 292 282 278 274
242 240 233 263 256 247 253 263 273 281 287 282 275 278 285 287 291 296 299 302 305 306 307 310 313 313 316 315 314 312 312 315 316 316 317 317 317 320 327 316 325 316 303 290
260 292 263 279 288 263 262 272 277 271 272 280 280 276 279 285 291 294 296 299 300 302 304 307 309 311 315 315 313 309 306 309 308 309 312 314 314 315 320 326 328 331 329 318
254 263 268 263 278 284 274 274 276 278 278 276 280 282 281 286 291 293 294 297 299 299 301 304 306 308 313 313 307 305 302 305 305 306 308 308 308 307 307 313 322 325 332 338
247 243 256 279 286 288 287 283 286 291 296 295 290 286 286 288 290 293 297 298 297 297 298 303 306 308 314 312 310 308 307 306 305 304 306 305 306 306 304 307 310 315 322 332
263 259 256 262 272 284 287 283 283 288 294 293 292 291 291 290 292 294 297 298 296 297 300 302 302 307 311 309 307 306 306 311 306 301 301 303 306 305 306 309 309 312 317 323
225 252 260 271 275 278 275 272 274 280 285 286 288 293 295 296 296 297 302 303 297 293 295 296 300 306 308 308 305 305 306 306 304 298 297 297 298 300 300 301 304 309 312 322
239 249 251 257 264 271 278 280 278 279 279 284 290 290 288 288 291 298 304 307 305 303 302 301 302 308 308 310 306 303 302 302 303 301 297 298 298 297 293 292 297 299 304 314
249 255 259 262 262 260 267 273 277 279 283 284 283 283 284 285 290 297 304 305 303 303 310 313 310 307 308 311 311 299 300 305 307 306 302 300 300 296 295 295 296 298 300 305
260 265 267 269 268 264 269 276 278 281 283 280 280 285 289 293 297 300 298 291 291 299 306 312 312 309 309 309 312 302 302 304 309 308 305 300 298 297 296 296 299 301 302 302
267 271 272 272 277 277 276 276 276 282 288 282 276 281 288 295 297 296 295 296 303 309 308 310 312 310 312 314 312 307 305 305 307 304 301 300 299 298 298 299 299 298 297 297
270 270 273 277 280 288 293 288 279 280 287 288 286 287 291 295 298 293 285 287 302 311 312 307 308 312 316 315 308 307 307 306 305 303 298 297 295 293 293 294 290 292 293 293
270 273 278 282 284 294 301 294 285 282 284 287 288 288 287 290 291 292 297 301 304 308 310 310 313 316 318 318 313 308 307 305 303 303 300 298 294 292 291 292 291 291 288 287
274 279 287 297 300 295 297 301 300 295 291 290 287 286 286 291 292 286 288 302 310 310 308 312 316 319 323 324 317 311 307 304 302 303 302 298 294 293 293 293 292 291 288 287
273 278 282 285 284 285 293 304 308 305 304 301 301 299 291 282 286 298 303 305 309 314 312 314 321 326 328 321 316 310 307 302 299 299 298 300 300 298 296 294 291 288 283 277
269 269 270 271 275 285 292 294 296 302 304 306 309 309 309 306 301 302 305 308 310 313 314 313 317 319 318 315 312 310 306 305 307 307 303 300 297 296 295 294 294 291 287 281
279 280 284 290 290 287 285 284 287 294 298 299 301 308 312 313 311 311 311 310 312 312 311 312 314 315 314 313 312 311 309 306 302 299 298 297 295 294 294 293 292 293 291 284